Precipitable_Water
0.47 0.38 0.32 0.34 0.35 0.34 0.30 0.25 0.24 0.22 0.33 0.35 0.35 0.36 0.34 0.43 0.49 0.49 0.56 0.60 0.59 0.59 0.72 0.74 0.70 0.74 0.74 0.78 0.81 0.94 1.11 1.30 1.30 1.27 1.25 1.24 1.18 1.22 1.33 1.33 1.29 1.25 1.14 1.12
0.35 0.32 0.40 0.42 0.39 0.35 0.33 0.28 0.25 0.26 0.32 0.36 0.35 0.33 0.34 0.41 0.42 0.48 0.51 0.57 0.62 0.66 0.66 0.70 0.67 0.66 0.68 0.73 0.76 0.83 0.94 1.11 1.20 1.26 1.29 1.25 1.26 1.30 1.29 1.23 1.22 1.24 1.16 1.13
0.30 0.36 0.41 0.41 0.38 0.33 0.33 0.30 0.27 0.22 0.32 0.38 0.36 0.30 0.30 0.33 0.41 0.49 0.52 0.56 0.64 0.69 0.66 0.64 0.66 0.61 0.63 0.67 0.71 0.77 0.86 0.95 1.01 1.10 1.18 1.24 1.28 1.24 1.20 1.16 1.20 1.21 1.19 1.21
0.35 0.38 0.40 0.37 0.35 0.37 0.30 0.36 0.29 0.25 0.28 0.25 0.36 0.21 0.27 0.28 0.32 0.42 0.46 0.48 0.55 0.65 0.73 0.64 0.65 0.63 0.59 0.63 0.72 0.76 0.81 0.89 0.93 0.94 0.92 0.99 1.05 1.04 1.11 1.11 1.18 1.15 1.15 1.15
0.34 0.37 0.37 0.36 0.38 0.41 0.36 0.37 0.28 0.32 0.33 0.33 0.31 0.25 0.25 0.31 0.26 0.30 0.37 0.43 0.52 0.61 0.67 0.62 0.61 0.66 0.65 0.64 0.68 0.71 0.77 0.82 0.86 0.88 0.91 0.89 0.87 0.96 1.05 1.07 1.02 1.00 1.05 1.07
0.37 0.46 0.43 0.40 0.43 0.43 0.44 0.38 0.36 0.40 0.37 0.27 0.31 0.27 0.23 0.24 0.27 0.29 0.33 0.37 0.47 0.55 0.64 0.67 0.66 0.70 0.70 0.68 0.69 0.72 0.75 0.78 0.82 0.82 0.83 0.85 0.86 0.87 0.87 0.88 0.87 0.90 0.93 0.94
0.33 0.38 0.44 0.47 0.41 0.44 0.42 0.37 0.29 0.28 0.28 0.26 0.35 0.29 0.27 0.29 0.30 0.32 0.33 0.37 0.44 0.53 0.59 0.66 0.62 0.62 0.70 0.69 0.67 0.69 0.72 0.73 0.80 0.78 0.79 0.81 0.84 0.87 0.86 0.83 0.80 0.80 0.83 0.87
0.23 0.23 0.36 0.46 0.43 0.40 0.41 0.38 0.30 0.24 0.25 0.28 0.36 0.26 0.28 0.34 0.37 0.39 0.43 0.43 0.45 0.53 0.58 0.62 0.67 0.68 0.66 0.68 0.67 0.67 0.69 0.71 0.76 0.77 0.78 0.80 0.82 0.84 0.86 0.88 0.90 0.87 0.83 0.84
0.25 0.26 0.34 0.38 0.43 0.43 0.40 0.35 0.42 0.34 0.35 0.29 0.31 0.35 0.40 0.39 0.36 0.40 0.41 0.42 0.46 0.51 0.57 0.59 0.66 0.69 0.73 0.71 0.71 0.71 0.70 0.71 0.74 0.76 0.78 0.81 0.83 0.84 0.85 0.89 0.93 0.92 0.90 0.90
0.28 0.24 0.35 0.39 0.43 0.44 0.40 0.44 0.33 0.35 0.25 0.23 0.29 0.31 0.30 0.33 0.29 0.35 0.38 0.42 0.47 0.53 0.56 0.61 0.64 0.69 0.74 0.79 0.83 0.85 0.85 0.83 0.85 0.83 0.82 0.82 0.85 0.88 0.88 0.89 0.89 0.92 0.94 0.96
0.30 0.28 0.27 0.35 0.38 0.36 0.38 0.38 0.40 0.39 0.36 0.27 0.25 0.28 0.41 0.39 0.34 0.33 0.41 0.45 0.49 0.51 0.51 0.55 0.60 0.67 0.74 0.81 0.85 0.87 0.89 0.88 0.90 0.94 0.94 0.92 0.89 0.88 0.92 0.93 0.95 0.97 1.00 1.03
0.43 0.36 0.25 0.27 0.36 0.43 0.42 0.40 0.40 0.32 0.30 0.34 0.31 0.29 0.46 0.46 0.43 0.41 0.43 0.47 0.49 0.50 0.54 0.58 0.60 0.65 0.70 0.72 0.77 0.78 0.84 0.87 0.91 0.95 1.01 0.99 0.98 0.97 0.93 0.88 0.92 0.97 1.00 1.04
0.44 0.39 0.28 0.28 0.33 0.39 0.37 0.39 0.39 0.39 0.38 0.30 0.28 0.30 0.50 0.50 0.48 0.45 0.43 0.49 0.48 0.50 0.51 0.57 0.62 0.60 0.62 0.67 0.73 0.75 0.72 0.73 0.84 0.91 0.95 1.00 0.98 0.97 0.95 0.99 0.97 1.07 1.04 1.08
0.48 0.39 0.35 0.29 0.34 0.42 0.37 0.40 0.41 0.37 0.30 0.32 0.31 0.35 0.41 0.46 0.48 0.46 0.44 0.49 0.52 0.50 0.53 0.54 0.57 0.59 0.62 0.64 0.67 0.69 0.71 0.69 0.72 0.77 0.81 0.85 0.90 0.93 0.93 1.02 1.01 1.05 1.11 1.15
0.42 0.30 0.36 0.39 0.41 0.41 0.42 0.40 0.40 0.37 0.36 0.30 0.31 0.34 0.41 0.45 0.48 0.48 0.47 0.46 0.51 0.55 0.54 0.52 0.53 0.56 0.60 0.64 0.66 0.70 0.72 0.73 0.69 0.71 0.74 0.79 0.90 0.95 0.97 1.03 1.06 1.10 1.09 1.12
0.41 0.29 0.35 0.31 0.35 0.35 0.31 0.36 0.39 0.39 0.39 0.36 0.37 0.35 0.46 0.49 0.52 0.51 0.50 0.48 0.45 0.49 0.56 0.56 0.55 0.56 0.59 0.62 0.63 0.68 0.71 0.70 0.70 0.69 0.66 0.74 0.83 0.90 0.95 1.02 1.07 1.12 1.14 1.15
0.34 0.33 0.32 0.23 0.32 0.29 0.24 0.32 0.39 0.38 0.42 0.41 0.33 0.38 0.46 0.46 0.50 0.51 0.51 0.51 0.50 0.50 0.54 0.56 0.57 0.59 0.59 0.62 0.65 0.66 0.70 0.74 0.72 0.72 0.76 0.80 0.82 0.83 0.92 1.01 1.06 1.06 1.10 1.15
0.23 0.31 0.33 0.25 0.26 0.17 0.21 0.34 0.32 0.37 0.39 0.41 0.39 0.42 0.45 0.47 0.50 0.53 0.57 0.56 0.54 0.53 0.55 0.61 0.61 0.60 0.64 0.62 0.65 0.70 0.75 0.74 0.74 0.74 0.76 0.82 0.83 0.85 0.90 0.97 1.01 1.05 1.08 1.07
0.30 0.33 0.26 0.21 0.20 0.20 0.18 0.23 0.25 0.24 0.22 0.35 0.40 0.48 0.47 0.49 0.50 0.47 0.55 0.58 0.56 0.53 0.58 0.57 0.55 0.58 0.65 0.63 0.67 0.72 0.76 0.77 0.77 0.78 0.78 0.83 0.87 0.87 0.90 0.90 0.91 0.95 0.96 0.97
0.37 0.41 0.29 0.24 0.18 0.12 0.14 0.25 0.34 0.32 0.17 0.38 0.49 0.52 0.52 0.53 0.37 0.38 0.52 0.58 0.58 0.54 0.54 0.53 0.53 0.57 0.62 0.68 0.71 0.71 0.74 0.77 0.77 0.81 0.85 0.91 0.93 0.90 0.85 0.90 0.87 0.89 0.92 0.91
0.27 0.29 0.24 0.25 0.23 0.22 0.29 0.34 0.43 0.25 0.24 0.44 0.47 0.53 0.58 0.52 0.54 0.55 0.56 0.58 0.61 0.62 0.61 0.62 0.59 0.57 0.63 0.73 0.75 0.75 0.79 0.77 0.86 0.91 0.91 0.95 0.96 0.86 0.84 0.84 0.86 0.84 0.82 0.85
0.25 0.24 0.23 0.28 0.24 0.16 0.34 0.37 0.27 0.36 0.45 0.51 0.52 0.54 0.60 0.63 0.63 0.62 0.62 0.60 0.62 0.65 0.66 0.66 0.65 0.66 0.69 0.74 0.79 0.81 0.82 0.87 0.88 0.90 0.94 1.00 0.95 0.90 0.87 0.82 0.83 0.83 0.82 0.81
0.22 0.27 0.24 0.26 0.20 0.27 0.35 0.31 0.35 0.40 0.40 0.45 0.52 0.57 0.65 0.64 0.65 0.65 0.63 0.65 0.65 0.67 0.73 0.75 0.74 0.71 0.73 0.77 0.79 0.75 0.77 0.86 0.89 0.92 0.93 0.95 0.92 0.84 0.78 0.80 0.77 0.77 0.78 0.75
0.30 0.36 0.29 0.28 0.26 0.30 0.34 0.34 0.40 0.41 0.45 0.52 0.60 0.59 0.59 0.68 0.68 0.68 0.67 0.66 0.66 0.69 0.73 0.76 0.75 0.72 0.71 0.79 0.82 0.84 0.89 0.94 0.95 0.93 0.91 0.86 0.79 0.77 0.78 0.77 0.76 0.74 0.74 0.75
0.29 0.31 0.28 0.27 0.29 0.32 0.30 0.35 0.45 0.47 0.50 0.56 0.64 0.64 0.60 0.67 0.68 0.72 0.71 0.70 0.70 0.71 0.75 0.81 0.79 0.80 0.80 0.85 0.88 0.93 0.94 0.94 0.89 0.82 0.79 0.78 0.78 0.76 0.75 0.77 0.77 0.77 0.79 0.76
0.36 0.36 0.29 0.23 0.37 0.37 0.38 0.47 0.49 0.48 0.51 0.59 0.62 0.64 0.69 0.67 0.68 0.68 0.65 0.73 0.77 0.74 0.77 0.81 0.81 0.86 0.86 0.88 0.91 0.93 0.94 0.92 0.87 0.81 0.80 0.78 0.77 0.77 0.77 0.76 0.74 0.75 0.74 0.73
Wind_Speed
23 21 22 20 19 16 12 11 11 13 14 13 14 15 16 11 12 13 12 10 10 9 7 6 6 5 4 2 1 2 5 14 18 19 22 22 23 26 26 28 28 28 28 29
23 28 21 20 20 18 16 15 16 16 16 12 16 17 15 12 13 14 13 13 12 9 8 8 7 6 5 4 2 2 5 8 12 17 19 22 24 24 25 27 29 28 29 28
28 21 23 22 20 20 18 18 15 16 13 15 14 15 14 13 13 12 14 14 13 12 11 10 9 8 7 6 4 4 6 8 9 11 13 17 23 24 26 26 28 28 28 29
27 29 18 21 24 22 21 18 18 17 13 15 12 14 14 13 13 13 13 14 15 13 12 12 11 10 9 8 7 6 6 7 8 10 12 14 16 19 21 24 27 27 29 28
25 22 27 21 19 19 19 17 18 17 16 14 13 13 13 9 12 14 14 15 15 14 13 13 13 12 10 10 9 8 8 8 9 10 11 12 14 17 18 19 21 23 24 26
27 23 23 28 25 22 16 15 17 15 15 16 15 14 12 12 13 14 14 16 15 14 14 13 13 12 12 11 10 10 10 10 10 11 12 13 14 15 18 19 20 20 21 23
23 25 23 21 20 22 20 15 15 14 15 15 13 14 17 15 16 14 13 15 15 15 16 15 14 14 14 13 13 12 12 12 12 12 13 14 15 16 17 19 20 21 22 23
24 21 26 24 25 19 22 21 17 16 15 15 13 15 13 11 10 12 12 14 15 15 16 17 17 17 16 15 15 15 15 15 15 15 15 16 16 16 17 19 21 22 22 24
19 20 20 22 24 27 22 20 23 19 18 16 18 18 16 15 13 11 12 12 16 17 18 19 18 18 18 17 17 17 17 17 18 18 18 18 18 18 19 19 20 23 24 25
19 17 16 16 18 23 24 19 18 19 18 19 17 16 15 11 14 14 14 13 14 13 15 18 19 20 19 20 18 19 19 20 20 20 21 21 21 21 22 22 23 24 25 27
21 19 19 15 15 19 19 24 21 20 19 19 18 17 15 15 15 16 14 14 15 16 14 16 18 19 20 20 21 21 22 23 23 23 23 24 25 25 25 26 27 28 29 29
15 16 19 26 27 21 19 19 22 23 24 23 21 24 17 16 16 14 16 15 14 15 16 16 17 18 19 20 20 22 24 26 27 27 26 26 27 27 29 31 33 36 36 35
14 15 17 17 18 19 19 22 24 23 23 28 25 21 14 16 17 17 17 17 16 17 18 17 18 19 19 19 19 20 22 25 26 27 28 27 28 29 29 27 25 29 37 41
18 18 17 16 16 19 22 23 24 26 27 25 32 27 23 21 20 21 20 18 18 18 18 18 19 21 20 20 20 19 19 21 23 24 25 26 27 28 29 30 26 21 21 24
21 21 20 21 23 20 22 22 25 29 29 28 24 29 26 25 25 26 25 23 21 20 19 19 20 22 21 20 20 20 18 18 19 21 23 26 27 27 28 29 29 26 23 25
23 23 22 23 25 24 25 24 26 28 29 31 29 31 27 27 25 24 25 25 25 26 26 23 23 23 23 22 21 22 22 20 19 19 20 22 24 25 26 27 28 29 29 28
24 22 22 24 22 23 25 22 20 23 25 29 33 31 29 27 25 25 26 26 26 27 26 26 25 25 25 26 25 24 24 22 22 22 21 21 21 22 24 25 26 26 28 28
27 23 22 23 22 23 25 22 24 25 27 27 31 33 33 32 30 29 27 26 27 27 27 28 28 28 28 25 24 24 24 25 23 23 22 21 21 21 21 23 24 25 26 27
23 21 21 23 23 27 27 25 24 24 33 28 29 29 32 34 32 33 29 28 28 26 27 27 27 28 27 26 23 23 24 25 25 24 23 23 22 21 22 23 24 25 25 26
17 18 17 15 18 22 24 21 21 22 28 20 23 23 23 27 32 34 31 28 28 25 24 24 24 25 27 27 25 23 23 24 25 25 25 24 23 23 23 24 24 25 26 25
14 16 21 17 17 19 19 19 18 18 22 25 23 24 23 21 24 28 28 30 30 29 26 25 23 24 24 26 26 26 24 24 24 24 24 24 24 24 24 25 25 25 25 25
15 15 16 15 16 19 16 15 15 19 21 24 23 24 25 25 25 22 23 25 27 29 26 24 23 23 23 23 24 24 24 23 23 24 24 25 25 25 26 25 25 25 25 25
20 20 18 19 20 20 20 21 23 22 24 23 23 21 25 26 24 22 21 21 19 20 23 23 22 21 20 20 21 21 23 23 24 24 24 24 25 26 26 25 25 24 25 25
21 20 23 22 25 27 27 26 26 25 26 25 24 25 21 26 26 24 21 20 20 20 20 20 20 20 20 20 21 22 22 23 23 23 24 24 24 24 24 25 25 25 26 26
22 23 25 30 31 29 30 25 26 26 26 26 25 24 20 23 24 24 23 21 20 20 21 22 21 21 20 20 20 21 21 21 21 21 22 23 23 23 23 23 24 25 27 29
22 23 25 30 25 26 27 26 26 24 22 22 20 21 19 17 18 20 20 21 20 19 19 21 20 20 20 20 19 21 21 22 22 22 22 22 22 23 23 23 23 24 27 28
Wind_Direction
232 235 235 233 237 240 243 246 261 257 259 280 279 285 286 279 268 260 257 255 256 262 256 251 253 258 272 287 271 221 194 199 206 211 206 213 210 206 210 206 204 206 209 207
232 237 237 235 238 238 245 251 258 269 267 261 286 283 281 271 265 258 251 253 257 255 250 248 246 245 246 245 232 187 178 181 194 206 215 212 208 207 209 208 211 213 209 211
231 243 231 232 236 237 243 245 250 253 269 270 282 285 283 271 268 264 252 253 253 246 244 243 239 237 232 226 211 187 174 179 187 192 196 202 210 212 211 212 209 210 212 213
236 235 237 234 237 235 242 241 248 255 260 264 269 282 284 274 276 261 253 249 249 244 241 238 233 231 228 223 214 197 184 179 181 184 184 187 191 195 201 206 208 212 214 218
236 233 230 236 239 230 243 241 245 249 253 263 265 273 276 284 277 266 257 251 244 242 235 231 228 228 225 221 215 209 201 194 191 188 187 188 191 197 195 194 200 205 213 213
233 234 231 234 235 232 243 244 248 250 252 258 254 254 271 264 264 267 261 248 242 239 233 231 228 227 224 221 217 215 210 208 204 202 200 198 197 197 200 205 207 209 212 214
233 235 235 234 230 234 234 235 248 254 246 253 249 258 263 271 266 261 259 250 240 238 231 227 223 224 223 222 221 220 216 213 212 212 210 208 208 208 210 212 214 217 221 221
228 239 227 230 230 232 232 227 233 240 248 256 253 256 262 264 270 258 262 254 243 240 233 228 225 224 224 224 224 224 224 221 220 219 218 219 219 219 219 221 225 227 227 227
224 236 237 231 231 225 233 233 237 251 254 259 253 263 272 263 264 264 268 262 250 245 234 227 225 225 226 229 230 228 228 229 228 227 228 228 227 228 229 231 232 233 233 233
230 235 231 234 226 230 228 230 234 241 245 251 253 257 251 262 261 261 271 266 252 242 238 232 229 228 230 233 235 235 235 235 235 234 235 235 236 236 238 238 239 239 239 240
230 235 237 239 228 225 229 234 238 241 241 249 257 257 251 251 256 257 264 272 248 241 236 230 233 233 235 238 239 243 242 242 241 239 239 240 242 243 244 246 247 247 246 245
237 235 236 241 242 242 238 236 233 239 246 249 253 254 250 248 261 263 262 272 252 241 238 242 239 238 237 240 243 247 248 246 245 244 243 244 245 247 250 254 257 256 254 249
248 242 247 247 240 242 242 240 240 244 247 248 249 255 259 255 258 262 267 264 259 245 246 244 243 237 239 243 248 253 252 249 245 245 246 247 248 250 254 257 263 260 253 250
244 237 241 244 238 246 249 257 254 247 248 254 251 259 260 262 261 263 265 260 255 251 248 248 246 239 242 245 249 253 256 248 245 245 246 248 249 251 253 251 257 259 262 235
243 241 241 241 247 248 254 261 265 257 252 250 257 255 256 256 261 258 257 260 248 251 253 253 248 242 244 247 251 253 253 250 245 247 250 251 254 254 253 250 251 254 255 247
246 247 244 248 247 252 253 261 260 256 254 257 260 261 258 259 258 260 257 255 254 255 257 257 249 245 248 246 252 253 252 249 247 249 254 253 254 254 251 250 250 251 252 252
249 245 245 248 252 256 255 242 253 258 258 259 259 260 261 261 259 257 257 254 257 256 257 253 250 248 249 248 255 254 250 248 250 252 257 258 257 254 253 252 250 251 251 251
244 243 246 250 256 250 257 252 255 252 260 269 271 267 257 254 256 256 257 258 260 260 257 255 255 253 254 251 253 252 248 249 252 254 255 257 256 257 256 253 252 254 254 254
234 238 245 249 252 262 261 258 255 257 260 265 271 270 263 260 259 255 254 257 261 263 256 257 257 251 251 248 252 250 249 250 253 254 257 257 257 259 259 256 256 256 256 256
228 235 243 250 255 257 261 262 269 265 260 269 268 270 273 268 253 256 256 259 259 259 258 261 260 252 247 246 248 247 249 251 253 255 257 257 259 261 263 260 259 260 259 258
231 241 243 250 257 266 262 268 267 258 262 269 268 264 270 271 265 265 259 256 255 258 261 260 257 255 249 246 246 248 249 254 255 255 257 259 261 264 264 264 262 261 259 257
237 240 247 249 257 268 263 266 273 267 267 263 272 267 263 267 269 272 264 261 258 255 256 255 254 253 250 248 246 245 249 252 255 256 258 259 262 265 265 265 263 261 259 258
247 245 250 247 256 265 265 273 276 271 271 270 269 274 262 264 265 268 269 262 259 256 252 253 251 250 250 246 245 247 253 253 255 257 260 260 263 265 265 262 262 259 257 258
252 257 258 261 263 266 269 275 278 277 269 265 264 269 274 262 263 261 266 266 263 258 250 246 246 248 250 252 252 252 253 255 258 261 261 263 264 265 265 264 262 260 259 259
258 258 258 261 267 273 274 274 276 283 275 267 262 261 268 259 260 258 262 265 262 260 254 248 249 249 251 254 255 255 254 256 260 263 264 265 265 266 267 267 266 264 265 264
267 265 260 264 269 270 272 276 275 273 282 274 266 260 261 268 267 264 263 260 259 259 255 249 248 251 254 256 255 257 256 258 261 264 266 265 266 267 266 267 269 272 270 269